Terminal Aerodrome Forecast
Issued by NWS Jackson, MS

Home | Current Version | Previous Version | Text Only | Print | Product List | Glossary On
Versions: 1 2 3 4 5 6 7 8 9 10 11 12 13 14 15
000
FTUS44 KJAN 172200 AAA
TAFGWO
TAF AMD
KGWO 172200Z 1722/1818 31008KT 4SM -RA BR SCT005 BKN030 OVC045
     FM180200 02006KT 6SM BR BKN020 BKN080
     FM181300 08010KT P6SM OVC015=

USA.gov is the U.S. government's official web portal to all federal, state and local government web resources and services.